Powrót do katalogu

SL-16 DEB

LostLEO
NORAD 39877·DEBRIS·🇷🇺 Russia

Wystrzelony Mar 26, 1993 z Baikonur Cosmodrome

Loading…

Następne Przeloty (najbliższe 24 godziny)

TLE

NieaktualneSource: Space-Track

Epoka: Nov 13, 2022, 15:15 UTC

1 39877U 93016BB  22317.63588366  .00005998  00000-0  25695-2 0  9993
2 39877  70.9882 306.6824 0125142  88.5189 273.0268 14.21070163931841

Śledź SL-16 DEB w czasie rzeczywistym z AllMySat

Download on the App Store